Location: Newark
(12.5331°N, 56.4669°W)
Time: 20:53:09
(UTC+00:00)

Envisat - Pass Details

Date: 31 January 2020
Orbit: 764 x 766 km, 98.1° (Epoch: 25 February)

Event Time Altitude Azimuth Distance (km) Brightness Sun altitude
Rises 21:56:01 0° 169° (S) 3,219 6.3 -2.9°
Reaches altitude 10° 21:58:19 10° 170° (S) 2,293 5.6 -3.5°
Maximum altitude 22:03:22 85° 258° (WSW) 770 3.1 -4.7°
Drops below altitude 10° 22:08:26 10° 347° (NNW) 2,294 5.5 -5.8°
Sets 22:10:44 0° 347° (NNW) 3,220 6.2 -6.4°
